HIMAWARI 3 (GMS 3)

导读

HIMAWARI 3(GMS 3)是日本于1984年8月2日发射的地球静止轨道气象卫星,属于日本第一代“向日葵”气象卫星系列。该卫星由日本电气公司独立研制,由日本气象厅与宇宙开发事业团联合运营,主要用于亚太地区气象数据收集分发,现已退役,为区域气象观测和预报提供了重要支撑。

Basic Information
目录编号:
15152
目录名称:
HIMAWARI 3 (GMS 3)
国际标识:
1984-080A
轨道中心:
EARTH
卫星名称:
HIMAWARI 3 (GMS 3)
卫星全名:
--
卫星状态:
在轨 (已飞行15384 天)
发射日期:
1984-08-02 UTC
国别 :
日本 (JP)
星等 :
--
This satellite is enrolled in the Space Conjunction Data Service (SCDS) and the current flight risk assessment level is: No High Risk
Orbit Information
数据来源 国际轨道数据 AOE轨道数据
星历时间 2026-09-15T01:33:30+0800
1天前
查看轨道信息
2026-09-14T06:00:00+0800
2天前
查看轨道信息
半长轴 42290.76km 42290.788km
偏心率 0.0005279 0.0005534
轨道倾角 10.497° 10.498°
近地点辐角 159.126° 158.930°
升交点赤经 323.118° 323.123°
平近点角 204.908° 272.238°
近地点 35890.297km 35889.247km
远地点 35934.949km 35936.055km
周期 1442.540分钟 1442.542分钟
每日圈数 0.998239 0.998238
Detailed Information
使用方式:
暂无
2D Orbit Map
3D Orbit Map
Orbit Altitude Analysis Chart
Orbit Inclination Analysis Chart
Orbit Comprehensive Analysis Chart
View Comprehensive Chart
Miss Distance Evolution Trend with All Objects Subscribe to Flight Safety Assessment
Collision Probability Evolution Trend with All Objects Subscribe to Flight Safety Assessment